1514908800.34,21798,7.19,72388.8,-9.27,-24.93,-25.39,0,*58
1514908801.56,21799,7.19,72388.5,-9.27,-24.77,-25.39,0,*53
1514908802.81,21800,7.19,72392.8,-9.29,-24.77,-25.39,0,*52
1514908804.01,21801,7.19,72392.8,-9.23,-24.93,-25.35,0,*5F
1514908805.26,21802,7.19,72392.3,-9.27,-24.87,-25.39,0,*51
1514908806.48,21803,7.19,72392.3,-9.27,-24.77,-25.35,0,*53
1514908807.69,21804,7.19,72390.5,-9.27,-24.77,-25.35,0,*54
1514908808.99,21805,7.19,72392.0,-9.29,-24.83,-25.29,0,*5D
1514908810.26,21806,7.19,72390.5,-9.29,-24.77,-25.29,0,*55
1514908811.48,21807,7.19,72390.3,-9.27,-24.61,-25.23,0,*57
1514908812.73,21808,7.19,72390.0,-9.27,-24.71,-25.35,0,*5E
1514908813.95,21809,7.19,72392.3,-9.27,-24.77,-25.35,0,*59
1514908815.2,21810,7.19,72392.0,-9.27,-24.71,-25.35,0,*57
1514908816.42,21811,7.19,72394.5,-9.27,-24.77,-25.23,0,*57
1514908817.67,21812,7.19,72394.0,-9.27,-24.71,-25.23,0,*52
1514908818.92,21813,7.19,72390.5,-9.27,-24.71,-25.19,0,*5A
1514908820.15,21814,7.19,72392.8,-9.27,-24.47,-25.09,0,*59
1514908821.4,21815,7.19,72388.3,-9.27,-24.57,-25.03,0,*53
1514908822.65,21816,7.19,72392.3,-9.29,-24.47,-24.97,0,*53
1514908823.92,21817,7.19,72394.0,-9.29,-24.41,-24.93,0,*50
1514908825.19,21818,7.19,72386.8,-9.29,-24.41,-24.97,0,*5B
1514908826.44,21819,7.19,72390.0,-9.29,-24.47,-24.97,0,*5C
1514908827.71,21820,7.19,72388.5,-9.27,-24.41,-25.03,0,*52
1514908828.96,21821,7.19,72390.5,-9.27,-24.47,-25.03,0,*55
1514908830.23,21822,7.19,72388.8,-9.27,-24.41,-25.03,0,*50
1514908831.51,21823,7.19,72392.3,-9.27,-24.41,-24.87,0,*5C
1514908832.75,21824,7.19,72392.3,-9.27,-24.35,-24.87,0,*58
1514908834.02,21825,7.19,72390.3,-9.23,-24.25,-24.87,0,*5C
1514908835.26,21826,7.19,72390.5,-9.27,-24.35,-24.87,0,*5A
1514908836.51,21827,7.19,72388.8,-9.23,-24.25,-24.77,0,*51
1514908837.76,21828,7.19,72392.0,-9.27,-24.25,-24.77,0,*5A
1514908839.01,21829,7.19,72394.3,-9.27,-24.25,-24.77,0,*5B
1514908840.25,21830,7.19,72392.5,-9.27,-24.35,-24.87,0,*5D
1514908841.52,21831,7.19,72390.5,-9.23,-24.41,-24.87,0,*5B
1514908842.79,21832,7.19,72392.8,-9.23,-24.41,-25.03,0,*55
1514908844.03,21833,7.19,72392.5,-9.27,-24.41,-25.19,0,*5B
1514908845.25,21834,7.19,72390.0,-9.27,-24.57,-25.19,0,*5B
1514908846.47,21835,7.19,72392.5,-9.27,-24.57,-25.19,0,*5A
1514908847.68,21836,7.19,72388.3,-9.27,-24.61,-25.19,0,*5C
1514908848.91,21837,7.19,72390.0,-9.27,-24.47,-25.19,0,*59
1514908850.12,21838,7.19,72392.3,-9.27,-24.57,-25.19,0,*57
1514908851.35,21839,7.19,72394.3,-9.27,-24.47,-25.09,0,*56
1514908852.58,21840,7.19,72394.5,-9.27,-24.47,-25.09,0,*58
1514908853.8,21841,7.19,72390.3,-9.27,-24.61,-25.23,0,*55
1514908855.02,21842,7.19,72394.0,-9.27,-24.57,-25.19,0,*5A
1514908856.23,21843,7.19,72394.3,-9.27,-24.57,-25.19,0,*5B
1514908857.45,21844,7.19,72396.3,-9.27,-24.57,-25.19,0,*5C
1514908858.68,21845,7.19,72394.0,-9.27,-24.47,-25.09,0,*5D
1514908859.9,21846,7.19,72392.0,-9.27,-24.57,-25.09,0,*5F
1514908861.13,21847,7.19,72392.5,-9.27,-24.47,-25.09,0,*5F
1514908862.38,21848,7.19,72394.8,-9.29,-24.51,-25.09,0,*59
1514908863.64,21849,7.19,72394.3,-9.29,-24.47,-25.09,0,*5F
1514908864.91,21850,7.19,72392.8,-9.27,-24.41,-25.03,0,*55
1514908866.17,21851,7.19,72392.8,-9.29,-24.51,-25.09,0,*51
1514908867.4,21852,7.19,72392.0,-9.31,-24.47,-25.09,0,*5C
1514908868.65,21853,7.19,72394.5,-9.27,-24.41,-25.09,0,*5C
1514908869.9,21854,7.19,72394.3,-9.27,-24.47,-25.03,0,*57
1514908871.15,21855,7.19,72394.0,-9.27,-24.47,-25.03,0,*56
1514908872.4,21856,7.19,72394.0,-9.29,-24.47,-25.13,0,*5A
1514908873.66,21857,7.19,72388.3,-9.29,-24.47,-25.09,0,*50
1514908874.91,21858,7.19,72392.3,-9.29,-24.51,-25.09,0,*58
1514908876.16,21859,7.19,72392.5,-9.29,-24.51,-25.09,0,*59
1514908877.41,21860,7.19,72392.3,-9.29,-24.47,-24.97,0,*52
1514908878.66,21861,7.19,72392.3,-9.29,-24.47,-24.97,0,*53
1514908879.88,21862,7.19,72396.3,-9.31,-24.47,-24.93,0,*5D
1514908881.11,21863,7.19,72392.8,-9.31,-24.47,-24.97,0,*58
1514908882.33,21864,7.19,72392.3,-9.31,-24.47,-24.93,0,*5B
1514908883.57,21865,7.19,72394.8,-9.31,-24.51,-24.83,0,*5C
1514908884.87,21866,7.19,72394.3,-9.29,-24.41,-24.83,0,*57
1514908886.14,21867,7.19,72392.0,-9.31,-24.41,-24.83,0,*5F
1514908887.41,21868,7.19,72392.5,-9.31,-24.41,-24.83,0,*50
1514908888.68,21869,7.19,72390.8,-9.31,-24.41,-24.83,0,*51
1514908889.96,21870,7.19,72396.3,-9.31,-24.41,-24.83,0,*59
1514908891.23,21871,7.19,72394.0,-9.29,-24.31,-24.83,0,*56
1514908892.5,21872,7.19,72394.8,-9.31,-24.41,-24.83,0,*5B
1514908893.8,21873,7.19,72392.8,-9.29,-24.41,-24.83,0,*53
1514908895.07,21874,7.19,72394.0,-9.31,-24.41,-24.83,0,*5D
1514908896.29,21875,7.19,72394.0,-9.31,-24.31,-24.77,0,*50
1514908897.54,21876,7.19,72390.8,-9.29,-24.31,-24.77,0,*5A
1514908898.77,21877,7.19,72394.0,-9.31,-24.31,-24.77,0,*52
1514908900.02,21878,7.19,72394.3,-9.29,-24.31,-24.77,0,*54
1514908901.29,21879,7.19,72392.5,-9.29,-24.41,-24.77,0,*52
1514908902.52,21880,7.19,72394.0,-9.31,-24.31,-24.77,0,*5A
1514908903.79,21881,7.19,72392.8,-9.29,-24.41,-24.77,0,*55
1514908905.02,21882,7.19,72394.8,-9.31,-24.31,-24.77,0,*58
1514908906.28,21883,7.19,72396.8,-9.31,-24.15,-24.41,0,*5A
1514908907.52,21884,7.19,72396.0,-9.31,-24.15,-24.47,0,*5B
1514908908.76,21885,7.19,72394.0,-9.31,-24.11,-24.47,0,*5E
1514908910.03,21886,7.19,72390.0,-9.31,-23.99,-24.41,0,*5C
1514908911.27,21887,7.19,72394.8,-9.31,-24.11,-24.47,0,*5C
1514908912.54,21888,7.19,72392.8,-9.31,-23.95,-24.41,0,*5E
1514908913.8,21889,7.19,72394.8,-9.31,-23.95,-24.41,0,*5F
1514908915.07,21890,7.19,72394.8,-9.29,-23.99,-24.31,0,*55
1514908916.34,21891,7.19,72394.0,-9.29,-23.99,-24.47,0,*55
1514908917.63,21892,7.19,72396.0,-9.29,-23.99,-24.41,0,*50
1514908918.9,21893,7.19,72396.5,-9.31,-23.99,-24.41,0,*58
1514908920.14,21894,7.19,72394.5,-9.31,-24.11,-24.47,0,*5E
1514908921.44,21895,7.19,72396.0,-9.29,-24.11,-24.41,0,*50
1514908922.68,21896,7.19,72396.3,-9.31,-23.99,-24.47,0,*5B
1514908923.94,21897,7.19,72392.8,-9.31,-24.11,-24.41,0,*5B
1514908925.21,21898,7.19,72394.0,-9.31,-24.11,-24.41,0,*54
1514908926.49,21899,7.19,72392.5,-9.29,-24.25,-24.61,0,*59
1514908927.76,21900,7.19,72398.0,-9.29,-24.25,-24.61,0,*58
1514908929.02,21901,7.19,72398.3,-9.31,-24.15,-24.67,0,*55
1514908930.32,21902,7.19,72392.3,-9.29,-24.25,-24.67,0,*5C
1514908931.57,21903,7.19,72390.5,-9.31,-24.25,-24.61,0,*52
1514908932.82,21904,7.19,72392.8,-9.31,-24.25,-24.61,0,*55
1514908934.07,21905,7.19,72396.3,-9.31,-24.25,-24.61,0,*54
1514908935.36,21906,7.19,72396.5,-9.33,-24.21,-24.67,0,*57
1514908936.6,21907,7.19,72396.0,-9.31,-24.11,-24.47,0,*55
1514908937.88,21908,7.19,72394.8,-9.33,-24.21,-24.51,0,*5C
1514908939.17,21909,7.19,72398.8,-9.33,-24.21,-24.67,0,*58
1514908940.41,21910,7.19,72396.8,-9.33,-24.31,-24.51,0,*54
1514908941.69,21911,7.19,72394.5,-9.33,-24.21,-24.51,0,*54
1514908942.98,21912,7.19,72392.5,-9.33,-24.21,-24.67,0,*52
1514908944.24,21913,7.19,72392.5,-9.35,-24.15,-24.67,0,*52
1514908945.5,21914,7.19,72396.3,-9.33,-24.15,-24.51,0,*56
1514908946.77,21915,7.19,72396.5,-9.33,-24.21,-24.51,0,*50
1514908948.04,21916,7.19,72398.3,-9.33,-24.15,-24.47,0,*53
1514908949.31,21917,7.19,72398.3,-9.33,-24.21,-24.47,0,*55
1514908950.58,21918,7.19,72398.0,-9.33,-24.21,-24.47,0,*5A
1514908951.82,21919,7.19,72394.0,-9.35,-24.15,-24.47,0,*5A
1514908953.06,21920,7.19,72398.3,-9.33,-24.05,-24.47,0,*57
1514908954.3,21921,7.19,72398.3,-9.35,-24.15,-24.47,0,*51
1514908955.54,21922,7.19,72396.5,-9.35,-24.15,-24.47,0,*52
1514908956.78,21923,7.19,72398.0,-9.35,-24.15,-24.35,0,*56
1514908958.04,21924,7.19,72396.0,-9.33,-23.99,-24.31,0,*50
1514908959.26,21925,7.19,72398.5,-9.35,-24.05,-24.35,0,*51
1514908960.48,21926,7.19,72396.0,-9.35,-24.05,-24.31,0,*56
1514908961.7,21927,7.19,72396.3,-9.35,-24.05,-24.31,0,*57
1514908962.91,21928,7.19,72394.5,-9.35,-24.05,-24.31,0,*58
1514908964.19,21929,7.19,72398.3,-9.35,-23.99,-24.21,0,*5A
1514908965.45,21930,7.19,72396.8,-9.35,-23.99,-24.15,0,*55
1514908966.71,21931,7.19,72398.0,-9.35,-23.99,-24.15,0,*54
1514908967.97,21932,7.19,72394.0,-9.35,-23.85,-24.15,0,*5A
1514908969.21,21933,7.19,72396.0,-9.35,-23.75,-24.15,0,*54
1514908970.42,21934,7.19,72394.3,-9.35,-23.89,-24.05,0,*51
1514908971.69,21935,7.19,72396.3,-9.35,-23.85,-24.15,0,*5D
1514908972.91,21936,7.19,72396.3,-9.35,-23.75,-24.05,0,*50
1514908974.17,21937,7.19,72396.0,-9.37,-23.89,-24.11,0,*55
1514908975.43,21938,7.19,72398.3,-9.37,-23.79,-24.11,0,*55
1514908976.7,21939,7.19,72398.0,-9.37,-23.89,-24.21,0,*58
1514908977.96,21940,7.19,72396.5,-9.37,-23.89,-24.11,0,*55
1514908979.23,21941,7.19,72398.0,-9.37,-23.89,-24.11,0,*54
1514908980.49,21942,7.19,72396.8,-9.37,-23.89,-24.11,0,*57
1514908981.75,21943,7.19,72396.5,-9.37,-23.79,-24.11,0,*59
1514908982.99,21944,7.19,72398.8,-9.37,-23.79,-24.05,0,*5B
1514908984.24,21945,7.19,72398.3,-9.37,-23.79,-24.05,0,*5A
1514908985.48,21946,7.19,72396.0,-9.37,-23.79,-24.05,0,*59
1514908986.75,21947,7.19,72394.0,-9.37,-23.79,-23.95,0,*56
1514908987.98,21948,7.19,72396.5,-9.39,-23.75,-23.95,0,*5B
1514908989.22,21949,7.19,72398.8,-9.39,-23.75,-23.95,0,*5A
1514908990.45,21950,7.19,72398.3,-9.39,-23.65,-23.89,0,*5E
1514908991.7,21951,7.19,72398.3,-9.37,-23.75,-23.89,0,*50
1514908992.96,21952,7.19,72398.8,-9.37,-23.75,-23.95,0,*5E
1514908994.18,21953,7.19,72398.8,-9.39,-23.75,-23.89,0,*5C
1514908995.46,21954,7.19,72396.0,-9.37,-23.65,-23.95,0,*59
1514908996.73,21955,7.19,72396.3,-9.37,-23.65,-23.89,0,*55
1514908997.94,21956,7.19,72396.5,-9.39,-23.59,-23.79,0,*58
1514908999.15,21957,7.19,72396.5,-9.39,-23.59,-23.79,0,*59
1514909000.39,21958,7.19,72396.0,-9.39,-23.53,-23.75,0,*50
1514909001.63,21959,7.19,72398.8,-9.39,-23.53,-23.79,0,*5D
1514909002.87,21960,7.19,72392.5,-9.39,-23.43,-23.65,0,*5B
1514909004.14,21961,7.19,72396.3,-9.37,-23.43,-23.65,0,*54
1514909005.35,21962,7.19,72400.5,-9.39,-23.43,-23.59,0,*56
1514909006.57,21963,7.19,72398.5,-9.39,-23.43,-23.59,0,*57
1514909007.8,21964,7.19,72398.8,-9.39,-23.39,-23.53,0,*57
1514909009.04,21965,7.19,72394.5,-9.39,-23.43,-23.53,0,*5B
1514909010.27,21966,7.19,72400.8,-9.39,-23.39,-23.53,0,*55
1514909011.51,21967,7.19,72396.5,-9.39,-23.43,-23.53,0,*59
1514909012.72,21968,7.19,72398.8,-9.39,-23.39,-23.43,0,*5A
1514909013.96,21969,7.19,72396.8,-9.39,-23.29,-23.43,0,*5A
1514909015.26,21970,7.19,72396.0,-9.41,-23.33,-23.49,0,*5C
1514909016.5,21971,7.19,72398.8,-9.39,-23.23,-23.43,0,*59
1514909017.74,21972,7.19,72396.3,-9.39,-23.29,-23.43,0,*50
1514909019.0,21973,7.19,72398.5,-9.39,-23.23,-23.29,0,*57
1514909020.25,21974,7.19,72398.0,-9.39,-23.23,-23.29,0,*50
1514909021.51,21975,7.19,72394.8,-9.39,-23.29,-23.29,0,*5B
1514909022.75,21976,7.19,72396.3,-9.39,-23.13,-23.29,0,*51
1514909023.98,21977,7.19,72398.8,-9.39,-23.13,-23.29,0,*50
1514909025.22,21978,7.19,72398.8,-9.39,-23.13,-23.29,0,*5F
1514909026.44,21979,7.19,72398.8,-9.39,-22.97,-23.09,0,*51
1514909027.66,21980,7.19,72396.0,-9.39,-22.97,-23.09,0,*57
1514909028.88,21981,7.19,72398.5,-9.39,-22.97,-23.09,0,*56
1514909030.12,21982,7.19,72396.3,-9.37,-22.97,-23.13,0,*50
1514909031.34,21983,7.19,72392.8,-9.39,-22.83,-22.97,0,*57
1514909032.58,21984,7.19,72398.3,-9.37,-22.83,-22.97,0,*5E
1514909033.83,21985,7.19,72398.3,-9.37,-22.93,-23.09,0,*58
1514909035.06,21986,7.19,72396.3,-9.39,-22.97,-23.09,0,*51
1514909036.3,21987,7.19,72396.3,-9.37,-22.97,-22.97,0,*58
1514909037.52,21988,7.19,72396.5,-9.39,-22.93,-22.93,0,*59
1514909038.76,21989,7.19,72396.3,-9.37,-22.83,-22.83,0,*56
1514909040.01,21990,7.19,72394.0,-9.37,-22.83,-22.83,0,*5E
1514909041.28,21991,7.19,72398.3,-9.37,-22.77,-22.83,0,*54
1514909042.55,21992,7.19,72396.3,-9.37,-22.77,-22.93,0,*56
1514909043.79,21993,7.19,72396.3,-9.37,-22.83,-22.83,0,*5D
1514909045.06,21994,7.19,72390.8,-9.35,-22.73,-22.77,0,*5C
1514909046.3,21995,7.19,72398.8,-9.37,-22.67,-22.83,0,*51
1514909047.57,21996,7.19,72398.8,-9.37,-22.67,-22.77,0,*59
1514909048.84,21997,7.19,72394.8,-9.37,-22.77,-22.83,0,*52
1514909050.05,21998,7.19,72396.3,-9.35,-22.63,-22.87,0,*5E
1514909051.3,21999,7.19,72394.5,-9.37,-22.83,-22.93,0,*56
1514909052.54,22000,7.19,72396.8,-9.37,-22.83,-22.93,0,*5C
1514909053.81,22001,7.19,72396.5,-9.35,-22.73,-22.77,0,*5A
1514909055.02,22002,7.19,72398.8,-9.35,-22.63,-22.87,0,*57
1514909056.26,22003,7.19,72398.3,-9.35,-22.63,-22.77,0,*59
1514909057.52,22004,7.19,72398.3,-9.35,-22.73,-22.77,0,*5F
1514909058.77,22005,7.19,72398.0,-9.35,-22.57,-22.77,0,*58
1514909060.03,22006,7.19,72396.3,-9.35,-22.73,-22.73,0,*59
1514909061.3,22007,7.19,72396.8,-9.35,-22.73,-22.77,0,*5C
1514909062.56,22008,7.19,72400.3,-9.35,-22.73,-22.77,0,*53
1514909063.83,22009,7.19,72396.5,-9.33,-22.73,-22.87,0,*5B
1514909065.07,22010,7.19,72394.3,-9.35,-22.77,-22.87,0,*51
1514909066.34,22011,7.19,72394.0,-9.35,-22.73,-22.77,0,*5B
1514909067.58,22012,7.19,72394.3,-9.35,-22.63,-22.77,0,*59
1514909068.81,22013,7.19,72398.0,-9.35,-22.63,-22.77,0,*58
1514909070.05,22014,7.19,72398.8,-9.35,-22.63,-22.73,0,*5B
1514909071.26,22015,7.19,72398.5,-9.35,-22.63,-22.63,0,*5B
1514909072.51,22016,7.19,72396.3,-9.33,-22.57,-22.63,0,*59
1514909073.78,22017,7.19,72396.0,-9.33,-22.57,-22.73,0,*59
1514909075.04,22018,7.19,72394.8,-9.33,-22.63,-22.73,0,*51
1514909076.3,22019,7.19,72396.5,-9.33,-22.63,-22.73,0,*50
1514909077.54,22020,7.19,72396.8,-9.33,-22.57,-22.63,0,*5C
1514909078.78,22021,7.19,72396.3,-9.33,-22.63,-22.63,0,*5A
1514909080.02,22022,7.19,72392.0,-9.35,-22.63,-22.73,0,*5E
1514909081.3,22023,7.19,72396.5,-9.33,-22.73,-22.73,0,*58
1514909082.56,22024,7.19,72394.8,-9.35,-22.73,-22.73,0,*59
1514909083.82,22025,7.19,72398.5,-9.35,-22.73,-22.73,0,*58
1514909085.08,22026,7.19,72396.0,-9.33,-22.63,-22.73,0,*5C
1514909086.32,22027,7.19,72396.3,-9.35,-22.73,-22.63,0,*5B
1514909087.56,22028,7.19,72398.0,-9.35,-22.63,-22.73,0,*54
1514909088.84,22029,7.19,72396.8,-9.33,-22.73,-22.73,0,*52
1514909090.08,22030,7.19,72394.3,-9.35,-22.63,-22.73,0,*5D
1514909091.31,22031,7.19,72396.8,-9.35,-22.63,-22.73,0,*5C
1514909092.55,22032,7.19,72398.3,-9.35,-22.63,-22.73,0,*5F
1514909093.78,22033,7.19,72394.5,-9.35,-22.63,-22.73,0,*5E
1514909095.04,22034,7.19,72394.8,-9.33,-22.63,-22.73,0,*5F
1514909096.3,22035,7.19,72394.8,-9.33,-22.63,-22.73,0,*5E
1514909097.56,22036,7.19,72392.5,-9.33,-22.63,-22.73,0,*5D
1514909098.82,22037,7.19,72394.3,-9.33,-22.63,-22.73,0,*5C
1514909100.05,22038,7.19,72392.3,-9.35,-22.63,-22.73,0,*55
1514909101.29,22039,7.19,72396.3,-9.33,-22.63,-22.63,0,*53
1514909102.53,22040,7.19,72394.0,-9.35,-22.63,-22.73,0,*5A
1514909103.79,22041,7.19,72394.3,-9.33,-22.63,-22.73,0,*5D
1514909105.03,22042,7.19,72396.3,-9.33,-22.57,-22.63,0,*58
1514909106.27,22043,7.19,72394.8,-9.35,-22.63,-22.73,0,*59
1514909107.51,22044,7.19,72394.3,-9.35,-22.57,-22.73,0,*59
1514909108.73,22045,7.19,72398.0,-9.35,-22.53,-22.57,0,*5A
1514909109.98,22046,7.19,72398.8,-9.33,-22.37,-22.53,0,*59
1514909111.24,22047,7.19,72394.3,-9.35,-22.21,-22.21,0,*5C
1514909112.51,22048,7.19,72396.0,-9.33,-22.21,-22.37,0,*52
1514909113.73,22049,7.19,72398.8,-9.35,-22.53,-22.57,0,*56
1514909114.94,22050,7.19,72398.0,-9.35,-22.37,-22.37,0,*5A
1514909116.18,22051,7.19,72394.3,-9.35,-22.11,-22.21,0,*58
1514909117.42,22052,7.19,72392.8,-9.35,-22.11,-22.21,0,*5B
1514909118.64,22053,7.19,72396.8,-9.35,-22.37,-22.53,0,*5B
1514909119.88,22054,7.19,72392.5,-9.33,-22.37,-22.53,0,*5A
1514909121.12,22055,7.19,72396.0,-9.33,-22.37,-22.37,0,*59
1514909122.36,22056,7.19,72396.5,-9.33,-22.27,-22.27,0,*5A
1514909123.63,22057,7.19,72398.3,-9.33,-22.21,-22.27,0,*5D
1514909124.89,22058,7.19,72394.0,-9.33,-22.21,-22.37,0,*53
1514909126.16,22059,7.19,72398.8,-9.33,-22.21,-22.27,0,*53
1514909127.42,22060,7.19,72394.0,-9.33,-22.21,-22.27,0,*59
1514909128.66,22061,7.19,72398.3,-9.33,-22.11,-22.27,0,*5B
1514909129.9,22062,7.19,72396.8,-9.33,-22.11,-22.27,0,*58
1514909131.14,22063,7.19,72398.5,-9.33,-22.11,-22.27,0,*59
1514909132.41,22064,7.19,72394.5,-9.33,-22.21,-22.27,0,*5D
1514909133.63,22065,7.19,72392.8,-9.35,-22.27,-22.27,0,*5C
1514909134.92,22066,7.19,72392.8,-9.33,-22.21,-22.21,0,*59
1514909136.15,22067,7.19,72394.8,-9.31,-22.07,-22.21,0,*5E
1514909137.39,22068,7.19,72394.8,-9.31,-22.07,-22.17,0,*54
1514909138.66,22069,7.19,72398.5,-9.31,-22.17,-22.17,0,*54
1514909139.97,22070,7.19,72398.5,-9.29,-22.17,-22.17,0,*55
1514909141.2,22071,7.19,72394.8,-9.31,-22.07,-22.21,0,*59
1514909142.44,22072,7.19,72394.8,-9.31,-22.07,-22.17,0,*5F
1514909143.68,22073,7.19,72392.0,-9.31,-21.93,-22.17,0,*50
1514909144.93,22074,7.19,72398.0,-9.31,-21.87,-22.03,0,*57
1514909146.15,22075,7.19,72394.3,-9.31,-21.93,-22.07,0,*57
1514909147.36,22076,7.19,72396.8,-9.31,-21.93,-22.03,0,*50
1514909148.6,22077,7.19,72392.8,-9.29,-22.03,-22.07,0,*56
1514909149.85,22078,7.19,72398.5,-9.31,-22.03,-22.17,0,*51
1514909151.08,22079,7.19,72396.3,-9.29,-22.03,-22.07,0,*58
1514909152.29,22080,7.19,72394.0,-9.31,-22.03,-22.07,0,*57
1514909153.53,22081,7.19,72392.5,-9.31,-22.07,-22.17,0,*53
1514909154.83,22082,7.19,72396.5,-9.29,-22.17,-22.21,0,*5D
1514909156.13,22083,7.19,72398.3,-9.29,-22.21,-22.31,0,*58
1514909157.4,22084,7.19,72392.8,-9.31,-22.17,-22.31,0,*53
1514909158.64,22085,7.19,72396.5,-9.31,-22.07,-22.31,0,*53
1514909159.94,22086,7.19,72392.8,-9.29,-22.17,-22.31,0,*58
1514909161.21,22087,7.19,72396.3,-9.31,-22.17,-22.31,0,*50
1514909162.48,22088,7.19,72396.3,-9.31,-22.21,-22.31,0,*5A
1514909163.76,22089,7.19,72394.8,-9.31,-22.17,-22.31,0,*5E
1514909165.03,22090,7.19,72394.8,-9.31,-22.17,-22.31,0,*56
1514909166.27,22091,7.19,72394.0,-9.31,-22.17,-22.37,0,*51
1514909167.54,22092,7.19,72392.3,-9.29,-22.21,-22.37,0,*5E
1514909168.75,22093,7.19,72396.5,-9.31,-22.07,-22.37,0,*52
1514909169.99,22094,7.19,72396.0,-9.31,-22.17,-22.37,0,*54
1514909171.23,22095,7.19,72392.3,-9.31,-22.17,-22.37,0,*55
1514909172.47,22096,7.19,72398.0,-9.31,-22.07,-22.31,0,*51
1514909173.71,22097,7.19,72394.0,-9.31,-22.21,-22.37,0,*52
1514909174.98,22098,7.19,72392.3,-9.31,-22.21,-22.31,0,*5B
1514909176.25,22099,7.19,72398.0,-9.29,-22.21,-22.37,0,*55
1514909177.49,22100,7.19,72394.5,-9.31,-22.21,-22.37,0,*5D
1514909178.76,22101,7.19,72396.3,-9.31,-22.17,-22.47,0,*5E
1514909179.97,22102,7.19,72396.0,-9.31,-22.07,-22.37,0,*5B
1514909181.24,22103,7.19,72394.8,-9.29,-22.17,-22.37,0,*52
1514909182.48,22104,7.19,72394.0,-9.31,-22.17,-22.37,0,*5C
1514909183.76,22105,7.19,72394.3,-9.31,-22.21,-22.47,0,*5F
1514909185.0,22106,7.19,72394.8,-9.31,-22.17,-22.37,0,*5E
1514909186.24,22107,7.19,72394.5,-9.31,-22.21,-22.37,0,*5A
1514909187.51,22108,7.19,72392.5,-9.31,-22.17,-22.31,0,*56
1514909188.76,22109,7.19,72392.0,-9.31,-22.17,-22.37,0,*51
1514909190.0,22110,7.19,72394.5,-9.31,-22.17,-22.37,0,*59
1514909191.24,22111,7.19,72392.0,-9.31,-22.17,-22.37,0,*58
1514909192.5,22112,7.19,72390.8,-9.33,-22.21,-22.41,0,*5D
1514909193.77,22113,7.19,72392.0,-9.33,-22.21,-22.41,0,*5C
1514909194.97,22114,7.19,72394.0,-9.31,-22.07,-22.37,0,*5C
1514909196.23,22115,7.19,72394.3,-9.33,-22.21,-22.41,0,*5A
1514909197.5,22116,7.19,72394.3,-9.33,-22.21,-22.37,0,*58
1514909198.74,22117,7.19,72392.0,-9.35,-22.21,-22.37,0,*5F
1514909200.0,22118,7.19,72396.0,-9.33,-22.21,-22.41,0,*57
1514909201.23,22119,7.19,72392.0,-9.33,-22.11,-22.41,0,*55
1514909202.46,22120,7.19,72390.8,-9.33,-22.11,-22.41,0,*5F
1514909203.73,22121,7.19,72392.5,-9.33,-22.21,-22.41,0,*5D
1514909204.96,22122,7.19,72392.5,-9.33,-22.27,-22.37,0,*59
1514909206.2,22123,7.19,72392.3,-9.33,-22.11,-22.41,0,*5C
1514909207.46,22124,7.19,72390.5,-9.33,-22.21,-22.41,0,*58
1514909208.72,22125,7.19,72390.8,-9.33,-22.21,-22.37,0,*58
1514909209.98,22126,7.19,72394.3,-9.33,-22.21,-22.41,0,*5A
1514909211.25,22127,7.19,72392.0,-9.33,-22.21,-22.37,0,*5A
1514909212.48,22128,7.19,72394.8,-9.35,-22.21,-22.41,0,*52
1514909213.72,22129,7.19,72394.8,-9.35,-22.21,-22.37,0,*52
1514909214.99,22130,7.19,72394.8,-9.33,-22.21,-22.37,0,*5C
1514909216.25,22131,7.19,72394.5,-9.33,-22.21,-22.37,0,*5D
1514909217.52,22132,7.19,72394.0,-9.33,-22.21,-22.37,0,*5E
1514909218.78,22133,7.19,72394.0,-9.33,-22.21,-22.41,0,*5E
1514909220.02,22134,7.19,72396.5,-9.35,-22.21,-22.27,0,*5F
1514909221.28,22135,7.19,72392.8,-9.33,-22.21,-22.37,0,*59
1514909222.52,22136,7.19,72396.5,-9.35,-22.21,-22.37,0,*5C
1514909223.78,22137,7.19,72392.8,-9.33,-22.21,-22.41,0,*5A
1514909225.05,22138,7.19,72396.5,-9.33,-22.21,-22.37,0,*54
1514909226.29,22139,7.19,72394.8,-9.35,-22.21,-22.27,0,*52
1514909227.55,22140,7.19,72394.5,-9.33,-22.21,-22.37,0,*5B
1514909228.79,22141,7.19,72394.8,-9.33,-22.27,-22.41,0,*5D
1514909230.03,22142,7.19,72394.8,-9.35,-22.21,-22.37,0,*5F
1514909231.24,22143,7.19,72396.5,-9.35,-22.11,-22.37,0,*5D
1514909232.51,22144,7.19,72394.5,-9.33,-22.21,-22.37,0,*5F
1514909233.74,22145,7.19,72398.0,-9.35,-22.21,-22.41,0,*59
1514909234.95,22146,7.19,72394.8,-9.35,-22.11,-22.37,0,*58
1514909236.19,22147,7.19,72396.3,-9.33,-22.11,-22.37,0,*5F
1514909237.46,22148,7.19,72398.0,-9.33,-22.21,-22.37,0,*53
1514909238.67,22149,7.19,72396.5,-9.35,-22.11,-22.27,0,*56
1514909239.91,22150,7.19,72394.3,-9.35,-22.21,-22.27,0,*5D
1514909241.13,22151,7.19,72396.0,-9.35,-22.11,-22.27,0,*5F
1514909242.37,22152,7.19,72396.0,-9.35,-22.21,-22.27,0,*5F
1514909243.58,22153,7.19,72396.0,-9.35,-22.11,-22.37,0,*5C
1514909244.8,22154,7.19,72396.3,-9.35,-22.11,-22.37,0,*5B
1514909246.06,22155,7.19,72396.5,-9.35,-22.21,-22.21,0,*5E
1514909247.28,22156,7.19,72396.5,-9.35,-22.11,-22.27,0,*58
1514909248.49,22157,7.19,72392.5,-9.35,-22.11,-22.27,0,*59
1514909249.76,22158,7.19,72394.5,-9.35,-22.21,-22.21,0,*53
1514909250.97,22159,7.19,72392.8,-9.35,-22.11,-22.27,0,*57
1514909252.25,22160,7.19,72392.8,-9.37,-22.17,-22.27,0,*59
1514909253.46,22161,7.19,72398.3,-9.35,-22.11,-22.27,0,*5C
1514909254.67,22162,7.19,72398.8,-9.35,-22.07,-22.27,0,*58
1514909255.94,22163,7.19,72396.0,-9.37,-22.17,-22.27,0,*5A
1514909257.19,22164,7.19,72398.8,-9.37,-22.11,-22.27,0,*5B
1514909258.4,22165,7.19,72394.8,-9.39,-22.11,-22.27,0,*54
1514909259.64,22166,7.19,72396.8,-9.37,-22.11,-22.27,0,*59
1514909260.88,22167,7.19,72394.8,-9.37,-22.11,-22.27,0,*58
1514909262.15,22168,7.19,72392.8,-9.37,-22.17,-22.27,0,*51
1514909263.39,22169,7.19,72392.8,-9.35,-22.07,-22.21,0,*55
1514909264.66,22170,7.19,72398.3,-9.37,-22.03,-22.17,0,*5E
1514909265.93,22171,7.19,72398.8,-9.37,-22.11,-22.31,0,*58
1514909267.2,22172,7.19,72396.0,-9.37,-22.17,-22.27,0,*5A
1514909268.44,22173,7.19,72396.0,-9.39,-22.03,-22.17,0,*53
1514909269.71,22174,7.19,72394.3,-9.37,-22.11,-22.17,0,*59
1514909270.92,22175,7.19,72396.0,-9.39,-22.11,-22.11,0,*50
1514909272.16,22176,7.19,72396.8,-9.37,-22.11,-22.11,0,*5D
1514909273.43,22177,7.19,72398.3,-9.37,-22.03,-22.17,0,*59
1514909274.7,22178,7.19,72396.0,-9.37,-22.11,-22.17,0,*55
1514909275.97,22179,7.19,72394.8,-9.37,-22.03,-22.17,0,*57
1514909277.21,22180,7.19,72396.8,-9.37,-22.03,-22.11,0,*57
1514909278.45,22181,7.19,72398.5,-9.39,-22.11,-22.17,0,*5D
1514909279.67,22182,7.19,72398.8,-9.39,-22.11,-22.11,0,*58
1514909280.91,22183,7.19,72396.3,-9.37,-22.11,-22.11,0,*57
1514909282.15,22184,7.19,72396.3,-9.39,-22.11,-22.17,0,*58
1514909283.42,22185,7.19,72398.5,-9.37,-22.03,-22.17,0,*54
1514909284.63,22186,7.19,72396.0,-9.39,-22.11,-22.03,0,*5F
1514909285.84,22187,7.19,72398.5,-9.39,-22.03,-22.03,0,*5D
1514909287.08,22188,7.19,72398.0,-9.37,-22.11,-22.11,0,*5C
1514909288.29,22189,7.19,72398.0,-9.39,-22.03,-22.03,0,*53
1514909289.53,22190,7.19,72398.3,-9.37,-22.03,-22.03,0,*55
1514909290.74,22191,7.19,72398.5,-9.39,-22.03,-22.03,0,*5A
1514909291.98,22192,7.19,72398.0,-9.37,-22.03,-22.03,0,*57
1514909293.22,22193,7.19,72398.8,-9.37,-22.03,-22.03,0,*56
1514909294.46,22194,7.19,72396.8,-9.37,-22.03,-22.03,0,*51
1514909295.69,22195,7.19,72398.3,-9.39,-22.03,-21.97,0,*50
1514909296.92,22196,7.19,72402.8,-9.39,-22.11,-21.97,0,*50
1514909298.15,22197,7.19,72398.5,-9.39,-22.03,-21.97,0,*52
1514909299.37,22198,7.19,72398.5,-9.39,-22.03,-22.03,0,*53
1514909300.62,22199,7.19,72396.3,-9.39,-21.97,-21.97,0,*52
1514909301.86,22200,7.19,72396.0,-9.39,-22.03,-21.97,0,*5F
1514909303.09,22201,7.19,72398.3,-9.39,-22.03,-21.97,0,*5E
1514909304.35,22202,7.19,72398.8,-9.39,-21.97,-21.97,0,*53
1514909305.64,22203,7.19,72398.5,-9.37,-21.97,-21.97,0,*5C
1514909306.9,22204,7.19,72402.5,-9.39,-21.87,-21.97,0,*54